La Grande, OR

1:35 PM PST on December 08, 2019 (GMT -0800)
La Grande-Union County

Weather History for KLGD - September, 2019

Change the Weather History Date:

Friday, September 27, 2019

  Actual Average Record
Temperature  
Mean Temperature 54 °F -  
Max Temperature 66 °F 70 °F 89 °F (1978)
Min Temperature 43 °F 37 °F 30 °F (1984)
Degree Days  
Heating Degree Days 10    
Growing Degree Days 4 (Base 50)    
Moisture  
Dew Point 36 °F    
Average Humidity 59    
Maximum Humidity 89    
Minimum Humidity 21    
Precipitation  
Precipitation 0.00 in - - ()
Sea Level Pressure  
Sea Level Pressure 29.86 in    
Wind  
Wind Speed 9 mph (NW)    
Max Wind Speed 20 mph    
Max Gust Speed 23 mph    
Visibility 10 miles    
Events      
Averages and records for this station are not official NWS values.
T = Trace of Precipitation, MM = Missing Value Source: NWS Daily Summary

Daily Weather History Graph

Daily Weather History Graph

Search for Another Location

Airport or City:

Astronomy

Sep. 27, 2019 Rise Set
Actual Time 6:45 AM PDT 6:40 PM PDT
Civil Twilight 6:15 AM PDT 7:09 PM PDT
Nautical Twilight 5:41 AM PDT 7:43 PM PDT
Astronomical Twilight 5:06 AM PDT 8:18 PM PDT
Moon 5:04 AM PDT (9/27) 6:39 PM PDT (9/27)
Length of Visible Light 12h 53m
Length of Day
11h 55m
Waning Crescent, 1% of the Moon is Illuminated
Sep 27
Waning Crescent
Sep 28
New
Oct 5
First Quarter
Oct 13
Full
Oct 21
Last Quarter

Hourly Weather History & Observations

Time (PDT) Temp. Windchill Dew Point Humidity Pressure Visibility Wind Dir Wind Speed Gust Speed Precip Events Conditions
12:56 AM 52.0 °F - 45.0 °F 77% 29.90 in 10.0 mi WNW 8.1 mph - N/A   Clear
1:56 AM 51.1 °F - 43.0 °F 74% 29.93 in 10.0 mi NNW 9.2 mph - N/A   Partly Cloudy
2:56 AM 48.9 °F - 42.1 °F 77% 29.95 in 10.0 mi NNW 6.9 mph - N/A   Clear
3:56 AM 48.0 °F - 42.1 °F 80% 29.94 in 10.0 mi West 11.5 mph - N/A   Clear
4:56 AM 48.0 °F - 42.1 °F 80% 29.94 in 10.0 mi West 13.8 mph - N/A   Clear
5:56 AM 46.9 °F - 41.0 °F 80% 29.94 in 10.0 mi WNW 10.4 mph - N/A   Clear
6:56 AM 43.0 °F - 39.9 °F 89% 29.96 in 10.0 mi Calm Calm - N/A   Clear
7:56 AM 43.0 °F 41.3 °F 39.0 °F 86% 29.96 in 10.0 mi SW 3.5 mph - N/A   Clear
8:56 AM 48.0 °F - 42.1 °F 80% 29.94 in 10.0 mi South 3.5 mph - N/A   Clear
9:56 AM 52.0 °F - 44.1 °F 74% 29.92 in 10.0 mi NW 4.6 mph - N/A   Clear
10:56 AM 57.9 °F - 42.1 °F 56% 29.89 in 10.0 mi Calm Calm - N/A   Clear
11:56 AM 61.0 °F - 41.0 °F 48% 29.87 in 10.0 mi Variable 5.8 mph - N/A   Clear
12:56 PM 66.0 °F - 30.9 °F 27% 29.84 in 10.0 mi West 15.0 mph 20.7 mph N/A   Clear
1:56 PM 64.9 °F - 24.1 °F 21% 29.81 in 10.0 mi NW 8.1 mph - N/A   Clear
2:56 PM 64.9 °F - 25.0 °F 22% 29.79 in 10.0 mi NW 15.0 mph - N/A   Clear
3:56 PM 64.0 °F - 26.1 °F 24% 29.78 in 10.0 mi NW 18.4 mph 23.0 mph N/A   Clear
4:56 PM 63.0 °F - 26.1 °F 25% 29.77 in 10.0 mi NW 13.8 mph - N/A   Clear
5:56 PM 55.0 °F - 32.0 °F 42% 29.80 in 10.0 mi WNW 19.6 mph - N/A   Clear
6:56 PM 52.0 °F - 34.0 °F 50% 29.82 in 10.0 mi NW 11.5 mph - N/A   Clear
7:56 PM 50.0 °F - 34.0 °F 54% 29.82 in 10.0 mi NW 8.1 mph - N/A   Clear
8:56 PM 48.9 °F - 34.0 °F 56% 29.81 in 10.0 mi North 5.8 mph - N/A   Clear
9:56 PM 46.9 °F - 34.0 °F 61% 29.80 in 10.0 mi NNW 8.1 mph - N/A   Scattered Clouds
10:56 PM 46.9 °F - 36.0 °F 66% 29.78 in 10.0 mi NW 8.1 mph - N/A   Mostly Cloudy
11:56 PM 46.0 °F 41.9 °F 35.1 °F 66% 29.76 in 10.0 mi NW 8.1 mph - N/A   Scattered Clouds